Wind_Speed
12 12 12 12 13 14 15 18 21 23 25 27 29 30 30 30 30 31 31 31 31 32 32 33 33 33 33 32 30 29 29 31
13 13 13 14 15 16 18 22 24 26 28 29 30 31 31 31 31 31 32 32 33 34 34 35 36 37 37 37 36 34 33 32
13 13 14 15 16 19 21 24 26 27 29 30 30 30 30 30 31 32 33 34 34 34 35 36 37 38 39 38 39 40 40 36
13 14 14 16 19 23 25 27 28 28 28 28 29 30 31 32 32 32 32 33 33 33 34 35 35 36 38 38 39 41 41 40
15 14 15 17 19 21 23 24 24 25 26 27 28 28 29 30 31 32 33 33 34 34 35 35 36 36 38 38 39 39 41 42
16 14 15 17 18 19 19 20 20 21 22 23 24 26 27 28 28 29 30 31 32 33 34 35 35 36 38 39 40 40 41 42
16 15 15 15 14 15 16 16 16 16 17 19 21 23 24 26 27 28 29 29 30 30 31 33 34 36 37 39 39 40 42 43
19 16 16 15 15 15 15 14 15 16 18 19 20 23 25 26 27 27 28 29 30 31 32 33 33 34 35 37 38 39 41 43
21 19 17 17 16 16 15 15 16 17 19 21 23 26 28 29 29 29 29 30 30 31 32 33 34 34 35 36 37 38 40 41
23 20 18 17 17 16 15 16 17 18 20 23 26 29 31 32 33 32 31 31 32 32 33 34 35 36 36 36 38 39 40 41
23 20 19 19 18 17 17 17 16 19 24 28 32 34 35 34 33 33 32 32 32 32 33 35 37 37 38 37 38 39 40 42
23 21 20 19 19 18 17 15 19 24 28 32 34 35 34 33 33 32 30 30 31 31 32 34 37 38 38 37 37 38 38 39
23 21 20 20 19 17 15 17 23 28 32 35 35 35 34 33 33 31 30 30 30 30 31 32 34 38 37 34 34 34 32 32
22 21 20 20 17 14 16 21 26 30 33 32 32 33 33 32 31 30 29 30 30 29 29 29 32 35 36 34 28 26 24 26
21 20 19 16 13 14 19 24 28 31 31 31 32 31 30 29 27 27 27 27 27 27 27 27 28 30 32 30 27 20 19 18
21 20 17 13 13 19 23 26 28 29 30 30 30 28 26 25 24 25 26 26 26 26 25 24 25 23 25 24 23 23 21 15
22 20 16 15 16 17 24 24 26 29 29 29 28 25 24 24 24 24 24 24 25 24 24 22 21 22 21 22 21 22 21 22
25 21 16 19 19 19 21 23 26 28 28 27 25 23 23 22 22 22 22 23 22 22 21 20 19 18 19 20 20 19 19 20
25 17 20 22 18 19 21 24 27 28 26 22 20 20 20 21 21 22 22 22 21 20 20 18 18 17 18 19 19 20 22 23
24 19 19 20 19 20 23 26 27 24 21 19 17 18 19 20 21 21 21 20 18 18 17 17 17 17 16 18 19 18 18 21
Wind_Direction
224 235 233 239 248 260 269 274 277 279 284 288 290 293 295 296 297 296 296 296 295 293 291 289 288 286 284 282 279 278 275 271
231 231 239 248 257 267 274 278 281 285 287 289 292 294 294 293 294 295 296 295 293 291 289 287 286 284 283 282 281 277 271 270
224 234 245 259 270 274 278 282 285 286 288 289 289 291 294 295 296 296 295 293 292 291 288 286 284 282 280 278 276 273 273 270
228 240 255 266 275 281 284 285 286 287 288 289 292 294 296 297 298 297 296 295 293 290 288 286 283 281 279 277 276 274 272 270
230 243 261 271 275 277 278 279 281 284 288 292 294 296 298 300 299 298 297 297 295 293 291 288 285 284 281 277 275 273 273 271
236 246 260 268 271 273 277 282 285 287 290 294 297 299 299 298 298 298 296 295 294 292 291 289 287 285 281 279 277 275 272 270
234 248 258 262 264 268 270 274 280 285 291 296 300 302 302 301 301 300 299 297 296 294 292 290 287 284 282 280 278 275 273 272
240 250 255 260 264 267 271 273 280 291 300 304 306 306 307 306 304 303 302 300 299 298 296 295 293 290 287 283 280 278 276 273
245 251 253 255 257 262 264 277 291 300 307 312 314 314 312 309 306 304 304 302 301 299 297 296 295 293 292 289 286 282 278 275
246 249 251 253 257 257 269 282 291 301 310 313 315 314 312 308 305 304 303 302 301 301 301 300 299 298 297 294 289 285 282 279
249 254 258 259 256 261 271 281 294 307 314 317 315 312 309 306 302 300 297 297 298 300 301 301 301 300 300 299 294 290 286 281
252 254 255 251 252 260 272 288 302 307 310 311 312 310 306 303 300 298 298 300 301 303 304 304 303 303 304 303 300 295 288 281
247 252 246 246 252 266 279 295 304 309 313 315 316 314 312 310 307 306 306 306 307 309 310 310 309 306 306 305 301 293 288 283
245 243 242 247 257 268 294 306 309 311 313 315 316 315 314 311 310 311 311 311 311 313 315 315 315 313 312 310 305 296 292 286
240 241 244 249 253 293 309 307 309 309 311 314 313 312 313 311 311 312 311 312 313 314 315 317 322 323 320 322 321 311 301 297
236 237 240 247 276 306 306 305 309 309 312 311 311 307 306 307 311 313 313 314 314 314 314 315 322 331 334 344 342 335 322 291
233 230 230 254 292 310 297 299 307 311 312 312 307 301 303 310 312 311 311 314 314 313 314 313 315 329 335 345 357 358 347 330
227 227 253 286 304 282 287 299 310 313 316 315 310 304 306 307 308 312 315 315 314 314 314 315 315 327 339 341 351 360 5 358
224 239 287 285 269 281 289 302 311 316 316 309 306 304 307 309 313 317 317 316 315 314 314 315 318 321 327 329 342 350 359 8
233 266 264 261 273 282 292 301 308 314 311 309 310 310 310 311 315 317 316 315 314 313 316 315 317 319 330 329 332 336 344 352
Height
3149 3151 3152 3154 3154 3154 3154 3154 3153 3153 3152 3150 3149 3147 3145 3143 3142 3140 3138 3136 3134 3133 3131 3130 3129 3128 3126 3125 3125 3125 3125 3125
3147 3148 3149 3150 3151 3151 3150 3150 3149 3148 3147 3145 3143 3141 3139 3138 3136 3133 3131 3129 3127 3126 3124 3123 3122 3120 3119 3119 3118 3117 3117 3118
3145 3146 3148 3148 3148 3147 3147 3146 3144 3143 3141 3140 3138 3136 3134 3131 3129 3127 3125 3123 3121 3119 3117 3115 3114 3112 3111 3111 3110 3108 3108 3109
3142 3143 3144 3144 3143 3143 3142 3141 3139 3138 3136 3134 3133 3130 3128 3126 3123 3121 3119 3116 3114 3112 3110 3108 3107 3105 3103 3102 3101 3100 3100 3100
3139 3140 3140 3140 3140 3138 3137 3136 3134 3133 3131 3129 3127 3125 3122 3120 3117 3114 3112 3109 3107 3105 3103 3101 3099 3097 3095 3093 3092 3091 3090 3090
3136 3137 3136 3135 3134 3133 3132 3131 3130 3128 3126 3124 3122 3120 3117 3114 3112 3109 3106 3104 3101 3098 3095 3093 3090 3088 3086 3085 3084 3083 3081 3081
3132 3132 3131 3130 3130 3129 3128 3127 3126 3124 3123 3121 3118 3116 3114 3111 3108 3105 3102 3099 3096 3093 3089 3086 3083 3081 3079 3077 3075 3074 3073 3071
3127 3127 3127 3126 3125 3125 3124 3123 3122 3120 3118 3116 3114 3111 3108 3105 3102 3098 3094 3091 3089 3085 3082 3079 3076 3073 3071 3068 3066 3064 3062 3061
3123 3123 3123 3122 3121 3120 3119 3119 3117 3116 3113 3111 3108 3106 3103 3100 3096 3092 3088 3085 3081 3078 3075 3072 3068 3065 3062 3060 3057 3055 3053 3051
3117 3117 3117 3117 3117 3116 3116 3115 3114 3112 3109 3107 3104 3100 3097 3093 3089 3085 3082 3078 3075 3071 3068 3064 3059 3056 3053 3050 3047 3045 3043 3041
3112 3112 3113 3113 3113 3112 3110 3109 3108 3106 3103 3101 3097 3093 3090 3086 3081 3078 3074 3071 3068 3064 3061 3056 3052 3048 3044 3041 3037 3034 3032 3030
3108 3108 3108 3107 3107 3106 3105 3103 3102 3101 3098 3095 3090 3086 3082 3078 3075 3070 3067 3063 3061 3057 3054 3049 3043 3039 3035 3032 3027 3024 3021 3018
3102 3103 3103 3102 3102 3101 3100 3098 3096 3094 3090 3085 3081 3077 3073 3069 3066 3063 3059 3056 3053 3050 3046 3042 3037 3031 3027 3025 3020 3015 3012 3009
3097 3097 3098 3097 3097 3096 3095 3093 3090 3087 3083 3079 3075 3071 3067 3064 3060 3057 3054 3051 3048 3045 3041 3037 3031 3025 3019 3014 3013 3009 3004 3000
3092 3092 3092 3093 3092 3091 3089 3087 3084 3081 3078 3073 3070 3066 3062 3059 3056 3053 3051 3047 3044 3040 3036 3031 3027 3021 3014 3009 3003 3002 2998 2995
3086 3087 3087 3089 3088 3086 3084 3081 3078 3075 3072 3067 3064 3061 3058 3055 3051 3047 3045 3042 3039 3036 3031 3027 3024 3020 3014 3007 3000 2995 2990 2990
3082 3082 3082 3083 3083 3081 3079 3077 3074 3071 3067 3063 3058 3055 3053 3049 3046 3043 3041 3038 3035 3031 3028 3023 3019 3017 3012 3007 3001 2995 2989 2984
3076 3077 3078 3077 3078 3076 3074 3072 3069 3066 3062 3057 3053 3052 3049 3045 3043 3039 3036 3033 3030 3027 3023 3019 3016 3012 3009 3005 3000 2995 2991 2985
3070 3072 3071 3072 3071 3070 3069 3067 3064 3061 3057 3054 3049 3047 3045 3042 3038 3034 3031 3029 3026 3023 3020 3016 3013 3009 3006 3004 2998 2993 2989 2984
3065 3067 3067 3066 3066 3064 3063 3062 3059 3056 3053 3051 3046 3043 3041 3038 3034 3030 3028 3026 3023 3020 3016 3013 3010 3006 3002 3000 2996 2993 2988 2983